sat.trackr.live / text

‹ back to catalog

STARLINK-4091

NORAD 52830 · 2022-062A

PAYLOAD ACTIVE UNKNOWN

§ Identity

Operator
Country
US
Launch date
2022-06-17
Launch site
AFETR
Launch vehicle
Mass (kg)
RCS (m²)

Purposes: comms

External: N2YO · Heavens-Above · Gunter

§ Orbital elements

Epoch: 2026-05-25T03:47:35.774016Z

Period
95.44 min
Inclination
53.2138°
Eccentricity
0.0001256
Mean motion
15.08821414 rev/d
Perigee alt
538.9 km
Apogee alt
540.7 km
Semi-major
6,917.9 km
B*
1.9491e-4
RAAN
51.0323°
Arg perigee
90.9901°
Mean anomaly
269.1235°
Rev number
21,732

§ Raw data

STARLINK-40911 52830U 22062A   26145.15805294  .00002814  00000+0  19491-3 0  99932 52830  53.2138  51.0323 0001256  90.9901 269.1235 15.08821414217325

JSON: /api/v1/satellites/52830 · /tle

For live sub-satellite position, see the globe view (requires WebGL).

§ Visibility from observer

Set your observer location to see the next 7 days of passes ≥ 10°. The values pass through the URL so the page stays shareable.

No JS? Fill the form by hand. The geolocation button needs JavaScript.